Atlantic City, NJ

10:50 PM EDT on October 18, 2017 (GMT -0400)
Atlantic City International

Weather History for KACY - April, 2014

Change the Weather History Date:

Saturday, April 5, 2014

  Actual Average Record
Temperature  
Mean Temperature 49 °F 48 °F  
Max Temperature 59 °F 58 °F 78 °F (1985)
Min Temperature 39 °F 39 °F 21 °F (1995)
Degree Days  
Heating Degree Days 16 17  
Month to date heating degree days 86 87  
Since 1 July heating degree days 4808 4384  
Cooling Degree Days 0 0  
Month to date cooling degree days 0 0  
Year to date cooling degree days 0 0  
Moisture  
Dew Point 38 °F    
Average Humidity 68    
Maximum Humidity 100    
Minimum Humidity 35    
Precipitation  
Precipitation 0.00 in 0.13 in 1.35 in (1981)
Month to date precipitation 0.03 0.69  
Year to date precipitation 13.58 10.99  
Snow  
Snow 0.00 in 0.00 in 0.70 in (1987)
Month to date snowfall 0.0 0.1  
Since 1 July snowfall 43.8 16.3  
Snow Depth 0.00 in    
Sea Level Pressure  
Sea Level Pressure 29.85 in    
Wind  
Wind Speed 14 mph (NW)    
Max Wind Speed 28 mph    
Max Gust Speed 36 mph    
Visibility 6 miles    
Events Fog    
T = Trace of Precipitation, MM = Missing Value Source: NWS Daily Summary

Daily Weather History Graph

Daily Weather History Graph

Search for Another Location

Airport or City:

Trip Planner

Search our weather history database for the weather conditions in past years. The results will help you decide how hot, cold, wet, or windy it might be!

Date:

Astronomy

Apr. 05, 2014 Rise Set
Actual Time 6:36 AM EDT 7:26 PM EDT
Civil Twilight 6:09 AM EDT 7:53 PM EDT
Nautical Twilight 5:36 AM EDT 8:25 PM EDT
Astronomical Twilight 5:03 AM EDT 8:59 PM EDT
Moon 10:42 AM EDT (4/5) 12:33 AM EDT (4/5)
Length of Visible Light 13h 44m
Length of Day
12h 49m
Waxing Crescent, 34% of the Moon is Illuminated
Apr 5
Waxing Crescent
Apr 7
First Quarter
Apr 15
Full
Apr 22
Last Quarter
Apr 29
New

Hourly Weather History & Observations

Time (EDT) Temp. Windchill Dew Point Humidity Pressure Visibility Wind Dir Wind Speed Gust Speed Precip Events Conditions
12:18 AM 46.9 °F - 46.9 °F 100% 29.72 in 0.5 mi NNW 10.4 mph - N/A Fog Fog
12:54 AM 46.0 °F 42.5 °F 46.0 °F 100% 29.70 in 0.5 mi North 6.9 mph - N/A Fog Fog
1:54 AM 46.0 °F 43.1 °F 46.0 °F 100% 29.72 in 0.8 mi NW 5.8 mph - N/A   Overcast
2:25 AM 46.0 °F 41.9 °F 45.0 °F 96% 29.74 in 1.2 mi NW 8.1 mph - N/A   Overcast
2:38 AM 46.0 °F 40.6 °F 45.0 °F 96% 29.73 in 1.8 mi NW 11.5 mph - N/A   Overcast
2:45 AM 46.0 °F 40.2 °F 45.0 °F 96% 29.73 in 2.5 mi NW 12.7 mph - N/A   Overcast
2:54 AM 45.0 °F 38.9 °F 45.0 °F 100% 29.73 in 3.0 mi NW 12.7 mph - N/A   Overcast
3:08 AM 45.0 °F 41.2 °F 45.0 °F 100% 29.72 in 2.5 mi NNW 6.9 mph - N/A   Overcast
3:18 AM 45.0 °F 40.1 °F 45.0 °F 100% 29.73 in 3.0 mi NW 9.2 mph - N/A   Overcast
3:54 AM 44.1 °F 40.8 °F 44.1 °F 100% 29.74 in 6.0 mi NNW 5.8 mph - N/A   Overcast
4:40 AM 43.0 °F 38.8 °F 43.0 °F 100% 29.74 in 1.8 mi NNW 6.9 mph - N/A   Overcast
4:54 AM 43.0 °F 38.2 °F 43.0 °F 100% 29.76 in 0.8 mi NNW 8.1 mph - N/A   Overcast
5:02 AM 43.0 °F 37.2 °F 43.0 °F 100% 29.76 in 0.1 mi NW 10.4 mph - N/A   Mist
5:54 AM 43.0 °F 37.2 °F 43.0 °F 100% 29.80 in 0.1 mi NW 10.4 mph - N/A   Overcast
6:52 AM 44.6 °F 40.7 °F 44.6 °F 100% 29.82 in 2.0 mi NW 6.9 mph - N/A   Overcast
6:54 AM 44.1 °F 40.1 °F 44.1 °F 100% 29.83 in 2.0 mi NW 6.9 mph - N/A   Overcast
7:45 AM 44.1 °F 41.5 °F 44.1 °F 100% 29.85 in 5.0 mi West 4.6 mph - N/A   Mostly Cloudy
7:54 AM 45.0 °F 41.8 °F 45.0 °F 100% 29.86 in 5.0 mi WNW 5.8 mph - N/A   Scattered Clouds
8:54 AM 48.9 °F - 42.1 °F 77% 29.86 in 10.0 mi WNW 10.4 mph - N/A   Scattered Clouds
9:54 AM 53.1 °F - 36.0 °F 52% 29.87 in 10.0 mi WNW 20.7 mph 25.3 mph N/A   Partly Cloudy
10:54 AM 55.9 °F - 35.1 °F 45% 29.87 in 10.0 mi WNW 18.4 mph 27.6 mph N/A   Clear
11:54 AM 57.9 °F - 34.0 °F 41% 29.87 in 10.0 mi West 19.6 mph 29.9 mph N/A   Clear
12:54 PM 57.9 °F - 32.0 °F 37% 29.87 in 10.0 mi WNW 18.4 mph 28.8 mph N/A   Clear
1:54 PM 57.9 °F - 32.0 °F 37% 29.88 in 10.0 mi WNW 26.5 mph 31.1 mph N/A   Clear
2:54 PM 57.9 °F - 30.9 °F 36% 29.90 in 10.0 mi NW 21.9 mph 28.8 mph N/A   Clear
3:54 PM 55.9 °F - 28.0 °F 34% 29.91 in 10.0 mi WNW 16.1 mph 27.6 mph N/A   Clear
4:54 PM 55.0 °F - 28.0 °F 35% 29.93 in 10.0 mi WNW 25.3 mph 33.4 mph N/A   Clear
5:54 PM 54.0 °F - 28.9 °F 38% 29.95 in 10.0 mi WNW 16.1 mph 27.6 mph N/A   Clear
6:54 PM 50.0 °F - 28.0 °F 43% 29.98 in 10.0 mi WNW 15.0 mph 28.8 mph N/A   Clear
7:54 PM 48.0 °F - 28.0 °F 46% 30.01 in 10.0 mi WNW 15.0 mph - N/A   Clear
8:54 PM 46.0 °F 41.4 °F 28.0 °F 50% 30.05 in 10.0 mi WNW 9.2 mph - N/A   Clear
9:54 PM 45.0 °F - 27.0 °F 49% 30.08 in 10.0 mi North - - N/A   Clear
10:54 PM 42.1 °F 36.1 °F 27.0 °F 55% 30.09 in 10.0 mi NW 10.4 mph - N/A   Clear
11:54 PM 41.0 °F 34.7 °F 26.1 °F 55% 30.11 in 10.0 mi NW 10.4 mph - N/A   Clear